Flag for Poland Weather past 2 weeks in Szczecin, Poland

Now
46 °F

Partly sunny.


Feels Like: 44 °F
Forecast: 38 / 52 °F
Wind: 6 mph from Southwest

Location: Szczecin Airport

Current Time: Mar 27, 2015 at 2:58:14 PM

Latest Report: Mar 27, 2015 at 2:30 PM


Visibility: 4 mi

Pressure: 29.89 "Hg

Humidity: 76%

Dew point: 39 °F

Location of SzczecinLocation

Historic Weather in Szczecin — Graph

°F

Szczecin temperature yesterday

Maximum temperature yesterday: 52 °F (at 12:00 AM)
Minimum temperature yesterday: 41 °F (at 8:00 PM)
Average temperature yesterday: 47 °F

Past Weeks' High & Low Weather Summary

 TemperatureHumidityPressure
High61 °F (Mar 17, 2:30 PM)100% (Mar 13, 6:00 AM)30.60 "Hg (Mar 13, 6:00 AM)
Low23 °F (Mar 22, 6:30 AM)18% (Mar 21, 1:00 AM)29.65 "Hg (Mar 26, 11:00 AM)
Average42 °F66%30.21 "Hg
* Reported Mar 12 2:00 PM — Mar 27 2:00 PM, Szczecin, Weather by CustomWeather, © 2015

Note: Actual official high and low records may vary slightly from our data, if they occured in-between our weather recording intervals... More about our weather records

Advertising

Szczecin weather history for previous 24 hours

 ConditionsComfort  
Time TempWeatherWind HumidityBarometerVisibility
2:00 PM
Fri, Mar 27
46 °FBroken clouds.7 mph76%29.86 "Hg4 mi
1:30 PM46 °FFog.7 mph76%29.86 "Hg3 mi
1:00 PM45 °FFog.7 mph87%29.86 "Hg2 mi
12:30 PM45 °FLight rain. Fog.6 mph87%29.86 "Hg2 mi
12:00 PM45 °FPartly sunny.7 mph76%29.86 "Hg5 mi
11:30 AM46 °FBroken clouds.6 mph76%29.86 "Hg5 mi
11:00 AM45 °FScattered clouds.6 mph76%29.86 "Hg5 mi
10:30 AM46 °FScattered clouds.6 mph76%29.86 "Hg4 mi
10:00 AM45 °FScattered clouds.6 mph81%29.83 "Hg4 mi
9:30 AM45 °FFog.5 mph81%29.83 "Hg3 mi
9:00 AM43 °FFog.5 mph93%29.83 "Hg2 mi
8:30 AM43 °FFog.5 mph93%29.83 "Hg2 mi
8:00 AM41 °FFog.5 mph93%29.83 "Hg2 mi
7:30 AM39 °FFog.3 mph100%29.83 "Hg2 mi
7:00 AM39 °FFog.3 mph93%29.80 "Hg2 mi
6:30 AM37 °FFog.3 mph93%29.80 "Hg1 mi
6:00 AM37 °FFog.2 mph100%29.80 "Hg1 mi
5:30 AM39 °FFog.No wind93%29.77 "Hg1 mi
5:00 AM41 °FFog.No wind87%29.77 "Hg1 mi
4:00 AM39 °FFog.3 mph93%29.77 "Hg2 mi
3:30 AM39 °FFog.2 mph93%29.77 "Hg2 mi
3:00 AM39 °FFog.2 mph93%29.77 "Hg2 mi
2:30 AM39 °FFog.2 mph93%29.77 "Hg3 mi
2:00 AM39 °FLight rain. Passing clouds.2 mph93%29.77 "Hg4 mi
1:30 AM41 °FLight rain. Partly cloudy.No wind87%29.77 "Hg4 mi
1:00 AM41 °FLight rain. Passing clouds.No wind87%29.77 "Hg4 mi
12:30 AM41 °FLight rain. Passing clouds.2 mph93%29.77 "Hg4 mi
12:00 AM41 °FFog.2 mph93%29.77 "Hg3 mi
11:30 PM
Thu, Mar 26
41 °FFog.2 mph93%29.77 "Hg3 mi
11:00 PM41 °FPassing clouds.2 mph93%29.74 "Hg4 mi
10:00 PM41 °FPassing clouds.3 mph93%29.74 "Hg4 mi
9:30 PM41 °FPassing clouds.3 mph93%29.74 "Hg4 mi
9:00 PM41 °FPassing clouds.5 mph93%29.74 "Hg4 mi
8:30 PM41 °FFog.5 mph93%29.74 "Hg3 mi
8:00 PM41 °FFog.6 mph100%29.74 "Hg2 mi
7:30 PM43 °FFog.6 mph93%29.74 "Hg1 mi
7:00 PM43 °FFog.5 mph93%29.74 "Hg1 mi
6:30 PM43 °FFog.3 mph93%29.74 "Hg3 mi
6:00 PM43 °FFog.5 mph93%29.71 "Hg2 mi
5:30 PM43 °FDrizzle. Fog.8 mph93%29.71 "Hg1 mi
5:00 PM43 °FDrizzle. Fog.8 mph93%29.71 "Hg1 mi
4:30 PM43 °FLight rain. Fog.8 mph93%29.68 "Hg2 mi
4:00 PM45 °FDrizzle. Fog.10 mph93%29.68 "Hg2 mi
3:30 PM45 °FDrizzle. Fog.14 mph93%29.68 "Hg1 mi
3:00 PM50 °FDrizzle. Fog.5 mph88%29.65 "Hg2 mi
2:30 PM50 °FLight rain. Fog.3 mph88%29.65 "Hg1 mi
2:00 PM50 °FLight rain. Fog.3 mph88%29.65 "Hg2 mi
Weather by CustomWeather, © 2015

See weather overviewHow to use our weather pages